Theta_e
349 351 348 347 349 351 350 352 354 360 360 358 357 356 355 352 351 352 353 351 348 345 346 348 349 352 350 347 350 354 349 348 342 345 349 354 357 357 357 360 360 360 356
355 354 353 355 356 355 356 356 360 359 363 361 359 356 355 354 350 349 348 348 346 346 350 350 350 347 352 353 350 350 350 352 347 345 351 350 354 356 358 359 356 354 355
350 351 354 355 351 355 357 358 358 359 360 359 357 355 355 354 350 347 344 343 347 350 352 350 346 348 347 346 351 349 348 355 354 352 346 350 351 353 353 357 357 358 356
343 348 350 352 352 351 355 355 356 357 357 357 357 357 355 353 351 349 346 343 346 346 352 353 354 353 353 353 353 352 348 347 352 349 351 347 350 354 352 348 349 353 352
340 342 343 349 351 352 352 354 356 356 355 356 356 355 355 354 351 350 349 347 344 348 355 355 355 354 345 348 349 350 351 352 351 350 346 352 351 347 346 347 348 349 354
334 334 338 340 343 344 345 346 348 352 355 354 352 352 352 350 339 339 347 349 351 350 350 352 352 344 343 339 339 340 347 349 347 347 344 346 352 350 349 347 347 345 343
330 332 333 336 337 339 340 341 341 342 346 348 350 349 349 350 334 332 336 348 350 349 348 346 343 343 344 349 342 337 338 337 341 352 347 350 352 356 354 351 353 351 347
329 330 332 333 333 335 335 336 338 339 340 342 343 346 346 345 331 330 334 347 348 349 348 347 347 347 349 346 345 343 346 349 349 349 351 352 356 360 360 359 359 360 362
327 328 330 330 331 331 331 332 334 335 336 338 340 343 343 343 329 326 332 343 342 344 345 346 345 344 336 330 342 341 343 342 339 335 336 337 336 336 345 351 348 348 343
323 325 327 328 329 329 330 331 333 334 332 334 337 340 335 340 330 323 326 337 338 337 341 343 332 336 328 325 339 342 341 340 343 347 346 342 336 342 334 346 355 350 344
319 320 320 320 318 323 329 331 331 331 332 331 330 335 337 337 338 323 320 336 336 335 334 334 336 325 321 319 320 339 338 343 339 344 343 342 348 344 344 345 350 353 350
314 313 314 314 314 314 317 319 326 329 329 330 328 328 331 334 327 325 320 319 330 337 335 335 336 322 318 317 321 324 321 326 339 340 340 340 341 342 342 345 346 349 354
314 315 315 315 314 313 313 312 315 323 325 323 326 327 327 330 332 321 320 319 319 329 337 331 322 317 315 319 317 319 319 335 336 337 338 340 341 343 343 343 346 347 349
312 312 312 311 311 312 312 312 312 314 319 322 322 323 327 329 330 331 332 332 322 326 327 331 328 324 321 325 329 331 336 338 339 339 339 341 343 340 339 341 340 341 341
311 311 311 311 310 310 311 311 311 314 314 316 322 324 323 323 325 320 321 330 333 329 328 333 332 333 332 333 334 335 338 339 335 336 337 338 340 341 337 339 339 338 336
310 310 309 309 309 311 310 310 310 307 306 304 303 309 323 316 309 308 305 304 304 307 326 330 331 336 334 333 332 333 336 334 335 334 335 337 338 340 340 338 338 336 334
309 309 308 309 310 311 311 310 309 312 307 304 304 304 302 306 303 302 302 301 301 305 322 328 330 331 333 333 331 331 331 335 343 338 340 337 335 336 335 338 336 335 334
311 308 310 309 308 309 309 311 312 311 311 315 315 310 309 303 301 299 297 301 310 307 323 327 328 330 331 330 330 331 333 333 336 340 338 337 335 335 336 338 338 334 333
312 311 312 310 309 308 308 308 309 308 309 311 315 313 309 306 300 297 297 315 320 316 316 319 324 328 329 331 331 332 334 334 337 336 338 336 337 337 336 337 339 323 324
311 311 311 311 309 309 308 306 305 305 305 306 307 309 308 310 319 323 321 321 323 318 321 322 323 328 330 332 332 333 332 331 332 333 333 335 335 338 339 339 339 336 334
310 310 310 310 310 308 308 307 306 304 304 304 304 306 300 306 309 311 312 314 318 320 321 324 324 327 329 330 331 330 330 330 330 332 333 334 334 334 338 340 340 339 338
310 309 309 308 308 307 307 307 306 304 304 303 304 304 300 305 305 305 307 308 309 312 315 315 318 324 329 330 331 330 330 330 331 331 332 334 333 334 334 335 337 337 337
308 308 308 308 307 306 305 306 306 304 303 303 303 303 303 302 303 304 304 305 306 307 309 311 312 314 316 318 321 328 331 331 333 333 332 332 333 335 335 334 334 334 335
306 306 306 306 306 306 306 305 305 302 302 302 302 301 301 301 301 302 303 303 304 305 307 308 308 309 310 311 312 312 315 311 310 318 329 333 333 331 337 335 333 335 334
305 305 304 305 305 305 305 305 304 304 305 304 303 302 300 299 299 299 301 301 302 303 304 305 307 308 309 308 309 310 303 291 296 294 305 317 333 335 335 335 336 337 337
305 305 305 304 304 304 304 304 304 304 303 303 303 304 304 303 300 298 298 298 298 299 300 303 304 305 307 308 309 296 289 288 294 288 296 306 313 329 334 335 334 335 335
Wind_Speed
6 5 6 6 8 7 7 8 9 8 8 8 8 8 10 10 9 11 11 10 11 10 8 10 12 11 8 6 8 10 10 10 11 11 9 8 9 8 7 7 5 6 6
6 5 5 5 4 4 5 5 6 7 5 7 6 7 8 8 9 12 12 11 13 12 13 13 13 8 11 10 9 12 10 11 11 14 11 10 11 10 7 8 7 7 6
8 6 5 6 5 5 4 3 3 2 3 5 5 7 7 7 8 10 11 10 12 11 11 11 11 11 10 7 8 10 8 9 10 9 12 10 10 9 9 9 8 8 7
9 7 7 7 8 6 8 6 6 5 5 6 7 7 7 7 8 9 11 11 12 12 12 14 14 14 13 11 10 11 8 9 9 9 10 11 10 9 8 9 9 8 8
8 8 9 10 9 10 9 9 8 7 6 6 6 6 6 7 7 9 9 10 11 12 13 12 12 12 10 8 7 9 10 9 8 9 9 10 10 10 10 9 10 9 8
12 11 11 9 9 10 11 11 11 11 9 8 8 7 7 6 5 9 9 7 9 9 9 8 8 7 11 11 12 13 12 10 10 9 8 11 14 12 11 10 10 9 10
12 12 12 12 12 12 11 10 11 11 11 11 10 9 9 9 8 9 9 8 7 8 8 8 7 7 6 7 7 11 12 16 17 12 12 12 13 12 12 11 12 10 11
12 12 12 12 13 13 13 13 13 11 12 11 12 11 10 9 10 11 12 10 9 10 9 9 9 9 8 8 7 9 10 10 12 12 13 12 13 11 11 12 11 11 8
13 14 14 14 15 14 15 15 13 12 11 11 12 12 12 13 11 12 9 10 10 11 10 10 10 11 9 8 10 11 12 12 9 12 14 14 14 13 11 8 11 11 13
15 16 16 16 16 16 16 15 14 12 11 9 11 12 12 13 11 11 10 9 10 10 10 10 11 14 8 9 10 10 13 13 11 12 9 9 13 13 12 11 10 11 12
14 16 16 15 15 17 17 15 14 14 13 11 10 10 12 12 13 13 13 11 11 11 11 10 10 13 14 14 13 12 14 11 10 10 11 8 7 6 7 9 13 11 11
12 12 12 13 11 12 15 14 15 14 13 13 11 9 10 10 12 11 13 16 14 13 14 12 10 9 14 15 12 14 13 11 11 10 10 9 8 7 7 9 11 11 11
14 15 15 15 14 13 12 12 12 14 10 8 10 10 10 10 11 13 14 14 17 14 12 12 10 10 11 12 15 16 9 9 10 11 12 12 7 7 6 7 6 9 12
14 14 12 12 12 12 9 9 10 8 9 7 8 8 10 10 10 10 10 8 14 11 12 12 11 9 8 11 9 11 10 11 11 12 12 10 6 6 8 6 7 8 8
12 12 12 10 11 11 10 8 9 12 8 9 10 8 7 8 9 10 9 10 8 7 8 8 8 8 10 10 10 10 10 10 10 12 12 11 10 8 8 7 8 6 8
11 10 9 9 10 9 9 8 11 15 17 16 16 13 11 13 13 15 14 12 11 5 6 9 10 8 10 11 10 9 9 9 9 9 9 10 9 10 10 8 7 7 6
10 12 9 9 10 10 8 8 9 10 11 14 15 14 14 17 16 13 14 11 9 8 7 10 10 10 9 10 9 10 10 10 10 9 10 9 9 9 9 10 8 7 7
11 11 9 9 9 10 10 10 8 8 9 9 8 9 10 12 12 12 8 7 3 5 10 11 11 10 10 10 11 11 11 10 10 9 8 8 8 8 8 10 10 10 8
10 10 10 9 9 10 9 9 9 9 9 9 10 9 14 18 7 2 9 6 6 6 6 7 8 11 11 10 10 9 10 10 8 9 9 10 10 10 9 9 10 11 9
10 17 14 9 9 10 9 9 9 9 9 9 8 9 11 11 7 7 3 4 6 5 4 6 8 10 11 10 10 9 9 10 11 10 11 11 11 9 11 12 10 10 10
8 9 15 9 9 9 9 10 9 9 9 9 8 9 17 8 8 8 8 8 7 4 5 5 6 9 9 9 10 10 11 11 11 10 10 10 11 11 11 11 11 11 11
9 9 9 8 9 11 10 8 9 9 9 9 10 10 15 8 8 7 7 7 7 7 6 6 7 9 9 9 9 10 11 11 11 11 10 11 11 11 12 12 11 13 10
9 10 10 9 10 10 10 10 11 9 10 10 10 10 10 10 9 9 9 8 8 7 7 7 7 6 7 8 10 10 10 11 11 9 10 11 11 12 12 12 12 13 11
9 10 10 10 10 10 10 10 10 10 8 9 9 9 10 10 10 11 10 9 9 9 8 8 7 8 8 8 7 8 8 7 9 11 17 12 13 12 10 12 11 14 13
8 9 9 9 9 9 10 10 10 11 11 10 9 8 8 9 11 11 10 10 9 9 10 9 6 10 10 11 10 13 14 16 14 10 10 12 17 18 14 12 12 12 14
7 8 7 8 8 8 9 9 9 9 10 10 10 10 11 9 8 9 9 10 10 10 12 8 10 16 15 9 11 17 16 16 15 10 10 10 10 14 13 16 20 12 13
Wind_Direction
289 290 287 283 293 297 295 301 297 290 265 248 238 234 233 220 209 220 221 217 225 227 223 226 232 234 239 223 245 242 232 232 244 252 254 263 261 255 262 246 229 236 234
286 270 269 280 287 295 291 288 291 283 255 242 244 244 243 233 222 222 219 221 229 224 231 221 231 221 225 222 221 228 234 234 242 245 251 244 245 253 253 260 256 238 240
324 339 334 310 301 293 286 173 169 191 190 203 218 233 244 244 233 227 229 232 233 237 235 229 225 219 228 235 224 243 238 238 234 248 254 241 252 249 242 241 248 249 249
310 315 300 288 285 268 285 275 185 201 202 206 214 223 231 231 230 233 235 238 247 253 258 245 238 231 240 228 238 242 228 234 236 238 247 251 238 239 243 248 235 229 244
319 304 291 294 291 292 288 283 281 273 242 216 217 224 229 221 218 220 229 238 243 255 254 250 250 247 247 241 252 252 256 240 239 237 237 241 240 229 230 232 242 250 228
346 347 339 316 293 286 287 288 292 283 263 247 246 242 245 251 213 216 227 237 244 249 257 256 254 240 250 242 233 247 262 256 244 242 239 239 241 237 238 239 233 231 239
336 333 335 336 331 327 316 290 271 271 274 274 258 241 236 239 223 233 229 243 239 239 247 256 258 256 247 263 228 227 242 244 244 254 249 244 249 243 244 226 233 231 238
341 338 335 329 321 319 318 313 310 298 273 260 258 253 248 243 207 216 216 235 248 249 247 250 258 267 261 259 269 276 270 260 240 237 245 255 256 254 238 236 241 235 250
341 333 330 328 320 313 304 300 298 296 293 279 262 255 251 256 223 223 199 224 237 247 250 247 249 257 254 211 256 263 268 262 229 233 249 254 258 256 241 245 241 234 233
336 333 326 320 313 308 307 302 297 289 287 280 278 269 260 256 254 226 209 249 246 251 248 251 227 250 250 210 245 256 260 256 252 255 238 247 243 250 234 228 243 238 234
332 325 320 318 315 310 308 300 296 293 288 274 269 267 270 264 259 225 210 242 257 254 256 257 255 209 231 239 231 251 251 262 255 255 256 254 252 226 239 222 229 232 242
315 307 301 303 306 308 312 310 301 285 285 284 277 275 271 260 249 246 228 215 245 250 258 262 265 214 219 231 234 241 245 252 252 252 250 250 246 236 231 231 220 230 242
318 320 316 308 304 303 301 301 303 305 283 280 289 286 279 275 269 236 232 232 230 244 251 258 255 241 229 237 237 248 230 241 241 241 245 250 236 227 222 229 230 232 242
318 311 306 301 298 294 289 292 296 298 304 270 273 278 288 285 278 277 275 248 238 244 241 248 251 258 261 275 273 230 235 236 236 240 246 251 229 204 215 212 230 220 231
314 309 312 310 305 297 287 284 284 285 277 288 290 278 272 270 276 295 291 290 282 281 278 242 235 234 235 237 235 242 236 229 232 240 245 244 234 220 225 207 227 221 230
324 331 328 318 312 300 294 294 265 261 275 278 271 258 274 272 279 274 270 268 270 206 253 252 246 244 237 235 228 222 218 234 232 233 235 237 235 231 225 212 210 216 238
335 332 328 333 332 331 319 311 310 314 262 263 276 266 249 260 276 266 264 265 238 177 238 252 252 253 243 245 251 245 244 238 228 231 242 227 228 232 219 216 209 213 219
344 337 344 345 339 339 342 338 327 315 312 312 307 285 271 267 271 264 244 192 214 218 249 246 249 249 248 249 247 246 251 253 243 237 239 238 230 227 223 219 207 207 208
358 351 350 346 344 343 342 345 345 342 340 339 335 348 358 323 301 309 177 244 237 218 217 240 263 262 254 254 248 249 254 256 246 253 242 233 233 228 224 226 222 214 197
353 356 355 347 348 348 351 353 352 347 345 340 344 347 342 329 337 331 227 242 264 270 261 246 242 251 256 254 254 256 260 257 251 251 249 250 239 223 234 229 221 212 210
355 350 0 356 353 354 354 356 354 350 349 346 343 345 332 335 348 355 359 2 352 306 268 256 268 275 267 262 263 258 254 258 261 257 257 246 242 235 217 234 234 221 218
356 360 5 1 357 358 357 360 358 351 349 353 351 348 343 358 352 351 350 347 341 338 335 331 324 311 301 281 270 264 259 261 253 248 253 253 249 240 240 226 224 237 223
0 1 4 5 3 360 4 3 3 354 348 352 351 350 1 353 350 351 348 343 339 338 336 332 329 331 333 332 330 316 287 274 269 265 272 270 251 245 237 235 233 235 234
1 3 360 4 4 357 5 359 358 358 355 350 349 353 354 351 350 347 349 339 348 342 340 335 327 334 329 325 321 319 316 345 340 327 316 264 256 252 248 243 241 236 238
7 1 0 358 356 356 352 356 357 357 354 358 352 351 348 346 347 344 347 347 347 346 344 326 324 337 348 346 343 339 335 321 308 299 294 293 277 269 261 246 231 235 236
5 2 359 355 355 350 347 347 348 349 348 351 351 353 353 354 343 333 338 345 341 341 341 336 338 338 337 333 341 328 310 305 304 287 278 265 266 261 251 248 238 226 226